This is the latest recevied weather packets stored in our database for station/object EA1GHG-11. If no packets are shown the sender has not sent any weather packets the latest 10 day(s).
| Time | Temp. | Humidity | Pressure | Rain* | Wind** | Luminosity | Snow |
|---|---|---|---|---|---|---|---|
| 1778044922 | 5.56° C | 100% | 1018.9 hPa | - | - | - | - |
| 1778043422 | 5.56° C | 100% | 1019 hPa | - | - | - | - |
| 1778041955 | 6.11° C | 100% | 1018.9 hPa | - | - | - | - |
| 1778041922 | 6.11° C | 100% | 1018.9 hPa | - | - | - | - |
| 1778040422 | 6.67° C | 100% | 1018.8 hPa | - | - | - | - |
| 1778038921 | 5.56° C | 100% | 1019.1 hPa | - | - | - | - |
| 1778037421 | 6.67° C | 100% | 1019 hPa | - | - | - | - |
| 1778035921 | 7.22° C | 100% | 1019.1 hPa | - | - | - | - |
| 1778034420 | 7.22° C | 100% | 1019.3 hPa | - | - | - | - |
| 1778032920 | 7.78° C | 100% | 1019.3 hPa | - | - | - | - |
| 1778031419 | 8.89° C | 100% | 1019.6 hPa | - | - | - | - |
| 1778029919 | 8.89° C | 100% | 1019.8 hPa | - | - | - | - |
| 1778028419 | 8.89° C | 100% | 1020 hPa | - | - | - | - |
| 1778026919 | 8.89° C | 100% | 1020.2 hPa | - | - | - | - |
| 1778026321 | 8.89° C | 100% | 1020.3 hPa | - | - | - | - |
| 1778024821 | 8.33° C | 100% | 1020.4 hPa | - | - | - | - |
| 1778023321 | 8.33° C | 100% | 1020.5 hPa | - | - | - | - |
| 1778021821 | 8.33° C | 100% | 1020.5 hPa | - | - | - | - |
| 1778020321 | 8.89° C | 100% | 1020.4 hPa | - | - | - | - |
| 1778018821 | 9.44° C | 100% | 1020.3 hPa | - | - | - | - |
| 1778017321 | 10° C | 100% | 1020.3 hPa | - | - | - | - |
| 1778015821 | 10° C | 100% | 1020.3 hPa | - | - | - | - |
| 1778014321 | 10.56° C | 100% | 1020 hPa | - | - | - | - |
| 1778012820 | 10.56° C | 100% | 1020 hPa | - | - | - | - |
| 1778011319 | 11.11° C | 100% | 1019.7 hPa | - | - | - | - |
* Rain since midnight (hover to see other rain measurements)
** Current wind speed in m/s (hover to see current wind gust speed)